{"data":{"norad_id":58624,"intl_designator":"2023-203G","name":"STARLINK-31129","alt_names":[],"object_type":"PAYLOAD","status":"ACTIVE","operator":null,"country":"US","launch_date":"2023-12-23","launch_site_code":"AFETR","launch_vehicle":null,"mission":null,"orbit_class":"UNKNOWN","rcs_meters":null,"size_class":null,"mass_kg":null,"dimensions":null,"purposes":["comms"],"wikipedia_slug":null,"has_3d_model":false,"image_url":null,"decayed_at":null,"tle_current":{"epoch":"2026-09-20T02:22:30.317664Z","epoch_age_seconds":184443,"freshness":"STALE","line1":"1 58624U 23203G   26263.09896201  .00017757  00000+0  65143-3 0  9997","line2":"2 58624  43.0023  49.1825 0001036 298.5860  61.4888 15.27670948153290","mean_motion":15.27670948,"eccentricity":0.0001036,"inclination_deg":43.0023,"raan_deg":49.1825,"arg_perigee_deg":298.586,"mean_anomaly_deg":61.4888,"bstar":0.00065143,"rev_number":15329,"period_min":94.261136659385,"perigee_km":482.06598785266,"apogee_km":483.48756918757,"semimajor_km":6860.9137785201,"source":"CELESTRAK","updated_at":"2026-09-21T09:00:33.922702Z"}}}